Flag for Turkey Weather past 2 weeks in Gaziantep, Turkey

Now
70 °F

Sunny.


Feels Like: 70 °F
Forecast: 44 / 67 °F
Wind: No wind

Location: Gaziantep Airport

Current Time: Oct 21, 2014 at 2:23:26 PM

Latest Report: Oct 21, 2014 at 1:50 PM


Visibility: 10 mi

Pressure: 29.98 "Hg

Humidity: 25%

Dew point: 32 °F

Location of GaziantepLocation

Historic Weather in Gaziantep — Graph

°F

Gaziantep temperature yesterday

Maximum temperature yesterday: 64 °F (at 1:20 PM)
Minimum temperature yesterday: 46 °F (at 6:20 AM)
Average temperature yesterday: 54 °F

Past Weeks' High & Low Weather Summary

 TemperatureHumidityPressure
High86 °F (Oct 7, 3:50 PM)94% (Oct 14, 8:50 AM)30.12 "Hg (Oct 14, 8:50 AM)
Low46 °F (Oct 20, 6:20 AM)16% (Oct 20, 2:50 PM)29.80 "Hg (Oct 19, 6:20 AM)
Average64 °F59%30.00 "Hg
* Reported Oct 6 12:20 PM — Oct 21 12:50 PM, Gaziantep, Weather by CustomWeather, © 2014

Note: Actual official high and low records may vary slightly from our data, if they occured in-between our weather recording intervals... More about our weather records

Advertising

Gaziantep weather history for previous 24 hours

 ConditionsComfort  
Time TempWeatherWind HumidityBarometerVisibility
12:50 PM
Oct 21
70 °FSunny.No wind21%29.98 "Hg10 mi
12:20 PM68 °FSunny.No wind21%29.98 "Hg10 mi
11:50 AM68 °FSunny.No wind23%30.01 "Hg10 mi
11:20 AM66 °FSunny.No wind24%30.01 "Hg10 mi
10:50 AM66 °FSunny.No wind24%30.01 "Hg10 mi
10:20 AM64 °FSunny.1 mph26%29.98 "Hg10 mi
9:50 AM63 °FSunny.No wind32%29.98 "Hg10 mi
9:20 AM61 °FSunny.No wind34%29.98 "Hg10 mi
8:50 AM57 °FSunny.No wind41%29.98 "Hg10 mi
8:20 AM55 °FSunny.No wind47%29.98 "Hg10 mi
7:50 AM50 °FSunny.3 mph54%29.95 "Hg10 mi
7:20 AM50 °FPassing clouds.No wind47%29.92 "HgN/A
6:50 AM48 °FPassing clouds.2 mph50%29.92 "HgN/A
5:50 AM46 °FPassing clouds.2 mph57%29.92 "HgN/A
5:20 AM50 °FPassing clouds.5 mph47%29.89 "HgN/A
4:50 AM50 °FPassing clouds.2 mph47%29.89 "HgN/A
4:20 AM46 °FPassing clouds.No wind57%29.89 "HgN/A
3:50 AM46 °FPassing clouds.2 mph62%29.89 "HgN/A
3:20 AM46 °FClear.2 mph62%29.89 "Hg10 mi
2:50 AM48 °FPassing clouds.No wind54%29.89 "HgN/A
2:20 AM48 °FPassing clouds.No wind50%29.89 "HgN/A
1:50 AM48 °FPassing clouds.3 mph54%29.89 "HgN/A
1:20 AM50 °FClear.2 mph54%29.89 "Hg10 mi
12:50 AM46 °FClear.1 mph62%29.89 "Hg10 mi
12:20 AM46 °FClear.No wind62%29.89 "Hg10 mi
11:50 PM
Oct 20
48 °FClear.6 mph58%29.89 "Hg10 mi
11:20 PM46 °FClear.No wind62%29.89 "Hg10 mi
10:50 PM46 °FClear.1 mph66%29.89 "Hg10 mi
10:20 PM46 °FClear.No wind62%29.89 "Hg10 mi
9:50 PM46 °FClear.No wind62%29.89 "Hg10 mi
9:20 PM48 °FClear.No wind58%29.89 "Hg10 mi
8:50 PM50 °FClear.No wind54%29.89 "Hg10 mi
8:20 PM52 °FClear.6 mph47%29.89 "Hg10 mi
7:50 PM52 °FClear.2 mph44%29.89 "Hg10 mi
7:20 PM54 °FClear.3 mph44%29.89 "Hg10 mi
6:50 PM55 °FClear.7 mph36%29.86 "Hg10 mi
6:20 PM55 °FSunny.7 mph41%29.86 "Hg10 mi
5:50 PM61 °FSunny.8 mph27%29.86 "Hg10 mi
5:20 PM63 °FSunny.9 mph25%29.86 "Hg10 mi
4:50 PM64 °FSunny.10 mph22%29.83 "Hg10 mi
4:20 PM64 °FPassing clouds.9 mph19%29.83 "HgN/A
3:50 PM64 °FPassing clouds.12 mph18%29.83 "HgN/A
3:20 PM64 °FPassing clouds.10 mph18%29.83 "HgN/A
2:50 PM64 °FPassing clouds.10 mph16%29.83 "HgN/A
2:20 PM63 °FSunny.13 mph17%29.86 "Hg10 mi
Weather by CustomWeather, © 2014

See weather overviewHow to use our weather pages